Weather in Kudrino

Russia / Novosibirsk Oblast     55°14′58″N   84°17′27″E
temp.,
°C
wind,
m/s
gust,
m/s
humid.,
%
clouds,
%
prec.,
mm/h
press.,
hPa
HPBL,
m
2 march, tue
tue201:00−13nne249699 0.8 1010117
04:00−15nne239694 0.2 101192
07:00−17nne229797 0.4 101336
10:00−16n129588 0.1 1014124
13:00−13wnw228990 0.3 1015313
16:00−11wnw2388100 0.1 1015403
19:00−13nnw1296100 0.2 101621
22:00−15nnw009785 0.1 101620
3 march, wed
wed301:00−17wsw119987 0.2 101720
04:00−19wsw1110086 0.0 101720
07:00−19wsw129991 0.1 101820
10:00−15sw119489 0.1 1019123
13:00−12sw348993 0.1 1020406
16:00−10sw3590100 0.1 1020519
19:00−13ssw3394100 0.1 102132
22:00−15ssw489574 0.0 1023146
4 march, thu
thu401:00−15ssw4119464 0.0 1023262
04:00−15ssw5149259 0.0 1022388
07:00−13ssw6158980 0.0 1022452
10:00−11ssw81586100 0.1 1021602
13:00−7ssw91687100 0.1 1020667
16:00−5ssw91591100 0.1 1019800
19:00−5ssw71494100 0.6 1019766
22:00−5ssw81694100 0.8 1018800
5 march, fri
fri501:00−6ssw81685100 0.9 1017586
04:00−7ssw71586100 0.0 1015516
07:00−8ssw6148496 0.0 1014408
10:00−6ssw61383100 0.0 1013518
13:00−5ssw71393100 0.5 1012746
16:00−3sw71294100 0.6 1012880
19:00−5wsw61391100 0.9 1015607
22:00−7sw7158864 0.0 1019510
6 march, sat
sat601:00−8sw8188579 0.0 1020690
04:00−7sw101890100 0.3 1019913
07:00−8sw101888100 0.4 1018833
10:00−7sw101887100 0.1 1018837
13:00−6sw101691100 0.5 1018879
16:00−5sw91588100 0.1 1018826
19:00−6sw81692100 0.3 1018788
22:00−6sw7159197 0.3 1019724